Weather observations for the past three days for
St Clair County International Airport
Imperial (Metric)
Date Time (edt) Wind (mph) Vis. (mi.) Weather Sky Cond. Temperature (ºF) Relative Humidity Wind Chill (°F) Heat Index (°F) Pressure Precipitation (in)
Air Dwpt 6 hour altimeter (in) sea level (mb) 1 hr 3 hr 6 hr
Max. Min.
15 13:35 N 10 G 18 10.00 Fair CLR 68 42.8 40% 30.22 0.0
15 13:16 NE 13 10.00 Fair CLR 68 44.6 43% 30.22 0.0
15 12:55 NE 8 10.00 Fair CLR 68 44.6 43% 30.23 0.0
15 12:35 N 8 10.00 Fair CLR 68 46.4 46% 30.22 0.0
15 12:15 N 7 10.00 Fair CLR 68 48.2 49% 30.21 0.0
15 11:55 NE 8 10.00 Fair CLR 68 48.2 49% 30.21 0.0
15 11:35 NE 10 10.00 Fair CLR 66.2 48.2 52% 30.22 0.0
15 11:15 NE 9 10.00 Fair CLR 66.2 50 56% 30.21 0.0
15 10:56 N 8 10.00 Fair CLR 66.2 50 56% 30.21 0.0
15 10:35 N 7 10.00 Fair CLR 66.2 51.8 60% 30.21 0.0
15 10:15 NW 8 10.00 Fair CLR 64.4 51.8 64% 30.22 0.0
15 09:55 NW 8 10.00 Fair CLR 64.4 51.8 64% 30.22 0.0
15 09:35 N 6 10.00 Fair CLR 64.4 51.8 64% 30.21 0.0
15 09:15 N 5 10.00 Fair CLR 62.6 51.8 68% 30.2 0.0
15 08:55 N 6 10.00 Fair CLR 62.6 51.8 68% 30.21 0.0
15 08:36 N 3 10.00 Fair CLR 60.8 51.8 72% 30.2 0.0
15 08:15 N 5 10.00 Fair CLR 59 51.8 77% 30.2 0.0
15 07:55 NW 6 10.00 Fair CLR 57.2 50 77% 30.2 0.0
15 07:35 NW 5 10.00 Fair CLR 55.4 50 82% 30.18 0.0
15 07:15 NW 5 10.00 Fair CLR 51.8 48.2 88% 30.17 0.0
15 06:55 NW 5 10.00 Fair CLR 50 48.2 94% 49 30.16 0.0
15 06:35 Calm 10.00 Fair CLR 48.2 46.4 94% 30.15 0.0
15 06:16 W 3 10.00 Fair CLR 48.2 46.4 94% 30.15 0.0
15 05:55 Calm 7.00 Fair CLR 46.4 44.6 93% 30.15 0.0
15 05:35 Calm 7.00 Fair CLR 46.4 44.6 93% 30.13 0.0
15 05:15 Calm 10.00 Fair CLR 46.4 44.6 93% 30.14 0.0
15 04:55 Calm 10.00 Fair CLR 48.2 46.4 94% 30.13 0.0
15 04:35 Calm 10.00 Fair CLR 48.2 46.4 94% 30.13 0.0
15 04:15 Calm 10.00 Fair CLR 48.2 46.4 94% 30.13 0.0
15 03:56 Calm 10.00 Fair CLR 48.2 46.4 94% 30.12 0.0
15 03:35 Calm 10.00 Fair CLR 48.2 46.4 94% 30.12 0.0
15 03:15 Calm 10.00 Fair CLR 48.2 46.4 94% 30.12 0.0
15 02:55 Calm 10.00 Fair CLR 48.2 46.4 94% 30.12 0.0
15 02:35 Calm 10.00 Fair CLR 48.2 46.4 94% 30.12 0.0
15 02:15 Calm 10.00 Fair CLR 48.2 46.4 94% 30.12 0.0
15 01:55 Calm 10.00 Fair CLR 50 46.4 88% 30.11 0.0
15 01:36 Calm 10.00 Fair CLR 50 46.4 88% 30.1 0.0
15 01:15 Calm 10.00 Fair CLR 50 48.2 94% 30.1 0.0
15 00:55 Calm 10.00 Fair CLR 50 46.4 88% 30.1 0.0
15 00:35 Calm 10.00 Fair CLR 50 46.4 88% 30.1 0.0
15 00:15 Calm 10.00 Fair CLR 51.8 48.2 88% 30.1 0.0
14 23:55 Calm 10.00 Fair CLR 51.8 46.4 82% 30.09 0.0
14 23:35 Calm 10.00 Fair CLR 51.8 46.4 82% 30.09 0.0
14 23:16 Calm 10.00 Fair CLR 51.8 46.4 82% 30.09 0.0
14 22:55 Calm 10.00 Fair CLR 53.6 48.2 82% 30.09 0.0
14 22:35 N 3 10.00 Fair CLR 55.4 48.2 77% 30.08 0.0
14 22:15 Calm 10.00 Fair CLR 57.2 44.6 63% 30.08 0.0
14 21:55 N 5 10.00 Fair CLR 59 42.8 55% 30.07 0.0
14 21:35 N 3 10.00 Fair CLR 59 44.6 59% 30.07 0.0
14 21:15 N 5 10.00 Fair CLR 60.8 42.8 52% 30.07 0.0
14 20:56 N 3 10.00 Fair CLR 60.8 42.8 52% 30.07 0.0
14 20:35 N 3 10.00 Fair CLR 62.6 41 45% 30.07 0.0
14 20:15 N 5 10.00 Fair CLR 64.4 41 43% 30.07 0.0
14 19:55 N 3 10.00 Fair CLR 66.2 39.2 37% 30.06 0.0
14 19:35 N 8 10.00 Fair CLR 66.2 39.2 37% 30.06 0.0
14 19:15 N 9 G 17 10.00 Fair CLR 66.2 39.2 37% 30.05 0.0
14 18:55 NE 9 G 16 10.00 Fair CLR 68 41 38% 30.05 0.0
14 18:36 N 12 G 16 10.00 Fair CLR 68 42.8 40% 30.04 0.0
14 18:15 N 13 G 18 10.00 Fair CLR 68 44.6 43% 30.04 0.0
14 17:55 N 10 G 18 10.00 Fair CLR 68 44.6 43% 30.04 0.0
14 17:35 N 13 G 18 10.00 Fair CLR 69.8 46.4 43% 30.04 0.0
14 17:15 N 9 G 17 10.00 Fair CLR 69.8 50 50% 30.04 0.0
14 16:55 N 13 G 21 10.00 Fair CLR 69.8 48.2 46% 30.03 0.0
14 16:35 N 10 G 20 10.00 Fair CLR 69.8 50 50% 30.03 0.0
14 16:16 N 14 G 20 10.00 Fair CLR 69.8 50 50% 30.03 0.0
14 15:55 N 13 G 18 10.00 Fair CLR 69.8 50 50% 30.03 0.0
14 15:35 N 14 G 21 10.00 Fair CLR 69.8 50 50% 30.03 0.0
14 15:15 N 12 G 17 10.00 Fair CLR 69.8 50 50% 30.02 0.0
14 14:55 N 15 G 20 10.00 Fair CLR 69.8 51.8 53% 30.02 0.0
14 14:35 N 13 G 20 10.00 Fair CLR 69.8 53.6 57% 30.02 0.0
14 14:15 NE 12 G 16 10.00 Fair CLR 69.8 53.6 57% 30.02 0.0
14 13:56 NE 12 10.00 Fair CLR 69.8 53.6 57% 30.02 0.0
14 13:35 NE 12 10.00 Fair CLR 69.8 55.4 60% 30.01 0.0
14 13:15 NE 10 10.00 Partly Cloudy SCT095 69.8 53.6 57% 30.01 0.0
14 12:55 NE 9 10.00 Fair CLR 69.8 53.6 57% 30.01 0.0
14 12:35 NE 12 G 16 10.00 Fair CLR 69.8 51.8 53% 30.01 0.0
14 12:15 NE 9 10.00 Fair CLR 69.8 53.6 57% 30 0.0
14 11:55 NE 9 10.00 Fair CLR 69.8 53.6 57% 29.99 0.0
14 11:36 NE 10 10.00 Fair CLR 69.8 55.4 60% 29.99 0.0
14 11:15 NE 10 10.00 Fair CLR 69.8 55.4 60% 29.98 0.0
14 10:55 NE 9 10.00 Fair CLR 69.8 55.4 60% 29.98 0.0
14 10:35 NE 8 10.00 Fair CLR 69.8 53.6 57% 29.97 0.0
14 10:15 NE 9 10.00 Fair CLR 71.6 55.4 57% 29.96 0.0
14 09:55 N 9 10.00 Fair CLR 71.6 55.4 57% 29.96 0.0
14 09:35 NW 5 10.00 Fair CLR 71.6 55.4 57% 29.95 0.0
14 09:16 N 3 7.00 Fair CLR 69.8 55.4 60% 29.95 0.0
14 08:55 N 5 10.00 Fair CLR 69.8 53.6 57% 29.95 0.0
14 08:35 N 3 10.00 Fair CLR 69.8 53.6 57% 29.94 0.0
14 08:15 Calm 10.00 Fair CLR 68 57.2 69% 29.94 0.0
14 07:55 Calm 10.00 Partly Cloudy SCT095 66.2 57.2 73% 29.93 0.0
14 07:35 Calm 10.00 Partly Cloudy SCT085 62.6 57.2 83% 29.93 0.0
14 07:15 NW 3 10.00 Mostly Cloudy BKN085 62.6 57.2 83% 29.93 0.0
14 06:56 Calm 10.00 Mostly Cloudy BKN075 60.8 57.2 88% 29.92 0.0
14 06:35 NW 3 10.00 Mostly Cloudy BKN075 59 57.2 94% 29.92 0.0
14 06:15 Calm 10.00 Mostly Cloudy BKN075 59 57.2 94% 29.91 0.0
14 05:55 Calm 10.00 Overcast OVC075 59 57.2 94% 29.91 0.0
14 05:35 Calm 10.00 Overcast OVC075 59 55.4 88% 29.91 0.0
14 05:15 Calm 10.00 Mostly Cloudy BKN075 BKN100 59 55.4 88% 29.9 0.0
14 04:55 Calm 10.00 Overcast OVC100 59 55.4 88% 29.89 0.0
14 04:36 Calm 10.00 Overcast OVC100 59 57.2 94% 29.89 0.0
14 04:15 Calm 10.00 Overcast OVC110 60.8 57.2 88% 29.88 0.0
14 03:55 Calm 10.00 Overcast OVC110 60.8 55.4 83% 29.87 0.0
14 03:35 Calm 10.00 Mostly Cloudy SCT040 BKN120 60.8 57.2 88% 29.88 0.0
14 03:15 Calm 10.00 Overcast BKN040 OVC120 62.6 57.2 83% 29.88 0.0
14 02:55 Calm 10.00 Overcast BKN040 OVC120 62.6 55.4 77% 29.88 0.0
14 02:35 Calm 10.00 Overcast BKN038 OVC120 62.6 55.4 77% 29.88 0.0
14 02:15 NE 3 10.00 Overcast OVC036 64.4 55.4 73% 29.88 0.0
14 01:56 NE 7 10.00 Overcast SCT031 BKN037 OVC043 64.4 55.4 73% 29.88 0.0
14 01:35 N 8 10.00 Overcast OVC031 66.2 55.4 68% 29.89 0.0
14 01:15 NE 20 G 24 10.00 Mostly Cloudy SCT031 BKN040 69.8 55.4 60% 29.88 0.0
14 00:55 N 8 10.00 Fair CLR 69.8 59 69% 29.87 0.0
14 00:35 Calm 10.00 Fair CLR 71.6 59 65% 29.85 0.0
14 00:15 W 3 10.00 Fair CLR 71.6 59 65% 29.84 0.0
13 23:55 Calm 10.00 Fair CLR 71.6 59 65% 29.84 0.0
13 23:36 Calm 10.00 Fair CLR 73.4 59 61% 29.82 0.0
13 23:15 Calm 10.00 Fair CLR 75.2 59 57% 78 29.81 0.0
13 22:55 SW 3 10.00 Fair CLR 75.2 59 57% 78 29.81 0.0
13 22:35 SW 6 10.00 Fair CLR 77 59 54% 79 29.81 0.0
13 22:15 SW 8 10.00 Fair CLR 77 59 54% 79 29.82 0.0
13 21:55 SW 7 10.00 Fair CLR 77 59 54% 79 29.81 0.0
13 21:35 SW 5 10.00 Fair CLR 78.8 59 51% 80 29.81 0.0
13 20:55 SW 5 10.00 Fair CLR 80.6 57.2 45% 81 29.8 0.0
13 20:35 SW 5 10.00 Fair CLR 80.6 59 48% 81 29.8 0.0
13 20:15 SW 3 10.00 Fair CLR 80.6 59 48% 81 29.8 0.0
13 19:55 W 5 10.00 Fair CLR 80.6 59 48% 81 29.8 0.0
13 19:35 Calm 10.00 Fair CLR 82.4 57.2 42% 82 29.79 0.0
13 19:15 SW 6 10.00 Partly Cloudy SCT120 84.2 57.2 40% 83 29.78 0.0
13 18:56 W 9 10.00 Mostly Cloudy SCT075 SCT085 BKN120 84.2 55.4 37% 83 29.79 0.0
13 18:35 W 5 10.00 Mostly Cloudy BKN075 BKN085 BKN110 84.2 53.6 35% 83 29.79 0.0
13 18:15 SW 7 10.00 Mostly Cloudy SCT075 SCT085 BKN110 84.2 55.4 37% 83 29.78 0.0
13 17:55 SW 9 10.00 Partly Cloudy SCT070 SCT110 86 55.4 35% 85 29.78 0.0
13 17:35 SW 10 10.00 Partly Cloudy SCT070 86 55.4 35% 85 29.78 0.0
13 17:15 SW 7 G 21 10.00 Mostly Cloudy BKN070 BKN080 87.8 53.6 31% 86 29.78 0.0
13 16:55 SW 7 10.00 Mostly Cloudy SCT080 BKN090 87.8 55.4 33% 86 29.78 0.0
13 16:36 Calm 10.00 Overcast OVC080 84.2 57.2 40% 83 29.79 0.0
13 16:15 SW 7 G 17 10.00 Partly Cloudy SCT080 86 57.2 38% 85 29.79 0.0
13 15:55 S 9 G 24 10.00 Fair CLR 84.2 62.6 48% 85 29.79 0.0
13 15:35 S 13 G 23 10.00 Partly Cloudy SCT070 84.2 64.4 51% 86 29.8 0.0
13 15:15 SW 14 G 17 10.00 Fair CLR 86 60.8 43% 86 29.8 0.0
13 14:55 S 14 G 17 10.00 Partly Cloudy SCT055 86 60.8 43% 86 29.81 0.0
13 14:35 S 13 G 17 10.00 Fair CLR 84.2 64.4 51% 86 29.82 0.0
13 14:16 S 15 G 23 10.00 Fair CLR 84.2 64.4 51% 86 29.82 0.0
13 13:55 S 13 G 20 10.00 Fair CLR 82.4 64.4 55% 84 29.82 0.0
13 13:35 S 8 10.00 Partly Cloudy SCT120 80.6 62.6 54% 82 29.82 0.0
13 13:15 S 9 10.00 Partly Cloudy SCT120 82.4 62.6 51% 83 29.82 0.0
13 12:55 S 10 10.00 Fair CLR 84.2 62.6 48% 85 29.82 0.0
13 12:35 SW 6 10.00 Fair CLR 84.2 60.8 45% 84 29.81 0.0
13 12:15 SW 12 G 21 10.00 Fair CLR 84.2 59 43% 84 29.8 0.0
13 11:56 SW 6 10.00 Fair CLR 82.4 59 45% 82 29.81 0.0
13 11:15 S 9 G 16 10.00 Partly Cloudy SCT110 78.8 59 51% 80 29.83 0.0
13 10:55 S 7 10.00 Mostly Cloudy BKN110 78.8 59 51% 80 29.84 0.0
13 10:35 SW 5 10.00 Mostly Cloudy BKN120 75.2 60.8 61% 77 29.86 0.0
13 10:15 S 6 10.00 Fair CLR 73.4 59 61% 29.87 0.0
13 09:55 SW 5 10.00 Fair CLR 73.4 59 61% 29.87 0.0
13 09:36 SW 6 10.00 Fair CLR 73.4 59 61% 29.87 0.0
13 09:15 Calm 10.00 Fair CLR 71.6 59 65% 29.87 0.0
13 08:55 SW 5 10.00 Fair CLR 71.6 57.2 61% 29.87 0.0
13 08:35 SW 5 10.00 Fair CLR 73.4 57.2 57% 29.87 0.0
13 08:15 S 3 10.00 Fair CLR 71.6 57.2 61% 29.87 0.0
13 07:55 S 3 10.00 Fair CLR 69.8 57.2 64% 29.87 0.0
13 07:35 Calm 10.00 Fair CLR 69.8 57.2 64% 29.86 0.0
13 07:16 SW 3 10.00 Fair CLR 68 55.4 64% 29.86 0.0
13 06:55 Calm 10.00 Fair CLR 68 55.4 64% 29.86 0.0
13 06:35 Calm 10.00 Fair CLR 68 55.4 64% 29.86 0.0
13 06:15 Calm 10.00 Fair CLR 66.2 55.4 68% 29.85 0.0
13 05:55 Calm 10.00 Partly Cloudy SCT120 66.2 55.4 68% 29.85 0.0
13 05:35 Calm 10.00 Partly Cloudy SCT120 66.2 55.4 68% 29.85 0.0
13 05:15 S 3 7.00 Fair CLR 66.2 55.4 68% 29.85 0.0
13 04:56 S 3 10.00 Partly Cloudy SCT120 64.4 55.4 73% 29.85 0.0
13 04:35 S 3 10.00 Mostly Cloudy BKN120 66.2 55.4 68% 29.85 0.0
13 04:15 Calm 10.00 Overcast OVC120 68 53.6 60% 29.85 0.0
13 03:55 Calm 10.00 Mostly Cloudy BKN120 68 53.6 60% 29.85 0.0
13 03:35 S 5 10.00 Fair CLR 68 55.4 64% 29.85 0.0
13 03:15 S 5 10.00 Fair CLR 66.2 55.4 68% 29.85 0.0
13 02:55 S 5 10.00 Fair CLR 66.2 55.4 68% 29.86 0.0
13 02:36 S 3 10.00 Fair CLR 66.2 55.4 68% 29.86 0.0
13 02:15 S 3 10.00 Fair CLR 68 55.4 64% 29.87 0.0
13 01:55 S 5 10.00 Fair CLR 66.2 55.4 68% 29.87 0.0
13 01:35 S 5 10.00 Partly Cloudy SCT120 66.2 55.4 68% 29.87 0.0
13 01:15 Calm 10.00 Partly Cloudy SCT120 64.4 55.4 73% 29.87 0.0
13 00:55 Calm 10.00 Fair CLR 62.6 53.6 73% 29.87 0.0
13 00:35 Calm 10.00 Fair CLR 62.6 53.6 73% 29.87 0.0
13 00:16 Calm 7.00 Fair CLR 64.4 53.6 68% 29.87 0.0
12 23:55 S 3 10.00 Fair CLR 64.4 53.6 68% 29.87 0.0
12 23:35 S 3 10.00 Fair CLR 66.2 53.6 64% 29.87 0.0
12 23:15 S 3 10.00 Fair CLR 68 51.8 56% 29.87 0.0
12 22:55 S 5 10.00 Fair CLR 68 51.8 56% 29.87 0.0
12 22:35 S 5 10.00 Fair CLR 68 51.8 56% 29.87 0.0
12 22:15 S 3 10.00 Fair CLR 68 53.6 60% 29.88 0.0
12 21:56 S 3 7.00 Fair CLR 69.8 53.6 57% 29.89 0.0
12 21:35 S 5 10.00 Partly Cloudy SCT065 71.6 51.8 50% 29.88 0.0
12 21:15 S 7 10.00 Partly Cloudy SCT065 71.6 53.6 53% 29.88 0.0
12 20:55 S 3 10.00 Fair CLR 71.6 55.4 57% 29.88 0.0
12 20:35 S 6 10.00 Fair CLR 73.4 53.6 50% 29.87 0.0
12 20:15 S 6 10.00 Fair CLR 75.2 53.6 47% 78 29.88 0.0
12 19:55 S 6 10.00 Fair CLR 77 53.6 44% 78 29.88 0.0
12 19:36 S 7 10.00 Partly Cloudy SCT065 SCT080 77 53.6 44% 78 29.89 0.0
12 19:20 S 3 10.00 Mostly Cloudy SCT065 BKN080 77 53.6 44% 78 29.89 0.0
12 18:55 S 8 10.00 Mostly Cloudy SCT065 BKN090 77 51.8 42% 78 29.89 0.0
12 18:35 S 6 10.00 Partly Cloudy SCT065 SCT080 77 51.8 42% 78 29.9 0.0
12 18:15 S 8 G 16 10.00 Fair CLR 78.8 51.8 39% 79 29.89 0.0
12 17:55 S 10 10.00 Fair CLR 78.8 50 37% 79 29.89 0.0
12 17:35 S 10 10.00 Fair CLR 80.6 50 34% 80 29.89 0.0
12 17:16 S 12 10.00 Fair CLR 80.6 50 34% 80 29.9 0.0
12 16:55 S 13 G 17 10.00 Fair CLR 80.6 51.8 37% 80 29.9 0.0
12 16:35 S 13 G 16 10.00 Fair CLR 80.6 51.8 37% 80 29.91 0.0
12 16:15 S 9 10.00 Fair CLR 80.6 50 34% 80 29.91 0.0
12 15:55 S 12 10.00 Fair CLR 80.6 51.8 37% 80 29.92 0.0
12 15:35 S 9 10.00 Fair CLR 80.6 50 34% 80 29.92 0.0
12 15:15 S 13 G 17 10.00 Fair CLR 80.6 51.8 37% 80 29.92 0.0
12 14:56 S 7 10.00 Fair CLR 80.6 51.8 37% 80 29.92 0.0
12 14:35 SW 5 10.00 Fair CLR 80.6 51.8 37% 80 29.93 0.0
12 14:15 S 10 10.00 Fair CLR 78.8 50 37% 79 29.94 0.0
12 13:56 S 6 10.00 Fair CLR 78.8 48.2 34% 79 29.95 0.0
Date Time (edt) Wind (mph) Vis. (mi.) Weather Sky Cond. Air Dwpt Max. Min. Relative Humidity Wind Chill (°F) Heat Index (°F) altimeter (in) sea level (mb) 1 hr 3 hr 6 hr
6 hour
Temperature (ºF) Pressure Precipitation (in)